TimeEDT,TemperatureF,Dew PointF,Humidity,Sea Level PressureIn,VisibilityMPH,Wind Direction,Wind SpeedMPH,Gust SpeedMPH,PrecipitationIn,Events,Conditions,WindDirDegrees,DateUTC
1:53 AM,48.9,41.0,74,30.27,10.0,SSW,5.8,-,N/A,,Clear,210,2012-10-14 05:53:00
2:53 AM,45.0,39.9,82,30.25,10.0,South,6.9,-,N/A,,Clear,180,2012-10-14 06:53:00
3:53 AM,48.0,42.1,80,30.23,10.0,SSW,4.6,-,N/A,,Clear,210,2012-10-14 07:53:00
4:53 AM,46.0,42.1,86,30.23,10.0,SSW,4.6,-,N/A,,Clear,200,2012-10-14 08:53:00
5:53 AM,48.0,43.0,83,30.22,10.0,SSW,5.8,-,N/A,,Clear,210,2012-10-14 09:53:00
6:53 AM,48.9,43.0,80,30.22,10.0,SSW,4.6,-,N/A,,Clear,200,2012-10-14 10:53:00
7:53 AM,48.0,44.1,86,30.22,10.0,South,6.9,-,N/A,,Clear,190,2012-10-14 11:53:00
8:53 AM,53.1,46.0,77,30.23,10.0,SSW,6.9,-,N/A,,Clear,200,2012-10-14 12:53:00
9:53 AM,60.1,48.0,64,30.22,10.0,South,10.4,-,N/A,,Clear,190,2012-10-14 13:53:00
10:53 AM,64.9,48.9,56,30.20,10.0,South,11.5,-,N/A,,Scattered Clouds,190,2012-10-14 14:53:00
11:53 AM,68.0,48.9,50,30.18,10.0,Variable,6.9,-,N/A,,Clear,0,2012-10-14 15:53:00
12:53 PM,72.0,51.1,48,30.15,10.0,SSW,11.5,16.1,N/A,,Partly Cloudy,200,2012-10-14 16:53:00
1:53 PM,73.0,51.1,46,30.11,10.0,South,17.3,20.7,N/A,,Clear,180,2012-10-14 17:53:00
2:53 PM,72.0,51.1,48,30.08,10.0,South,13.8,-,N/A,,Mostly Cloudy,190,2012-10-14 18:53:00
4:53 PM,72.0,53.1,51,30.04,10.0,South,13.8,-,N/A,,Clear,180,2012-10-14 20:53:00
5:53 PM,70.0,54.0,57,30.03,10.0,SSW,12.7,20.7,N/A,,Clear,200,2012-10-14 21:53:00
6:53 PM,66.9,53.1,61,30.02,10.0,Calm,Calm,-,N/A,,Partly Cloudy,0,2012-10-14 22:53:00
7:53 PM,63.0,54.0,72,30.01,10.0,South,5.8,-,N/A,,Clear,190,2012-10-14 23:53:00
8:53 PM,64.0,54.0,70,29.99,10.0,South,8.1,-,N/A,,Clear,180,2012-10-15 00:53:00
9:53 PM,64.9,54.0,68,29.97,10.0,SSW,11.5,-,N/A,,Clear,200,2012-10-15 01:53:00
10:53 PM,64.0,55.0,73,29.97,10.0,South,10.4,-,N/A,,Mostly Cloudy,190,2012-10-15 02:53:00
11:53 PM,64.0,55.9,75,29.96,10.0,South,4.6,-,N/A,,Overcast,190,2012-10-15 03:53:00